Location: Owatonna
(44.0840°N, 93.2260°W)
Time: 19:27:43
(UTC-05:00)

Tiangong 1 - Visible Passes

Search period start: 31 October 2014 00:00
Search period end: 09 November 2014 23:00
Orbit: 347 x 359 km, 42.8° (Epoch: 31 October)

Date Brightness Start Highest point End Pass type
(mag) Time Alt. Az. Time Alt. Az. Time Alt. Az.
31 Oct 1.5 19:31:22 10° W 19:34:16 49° SSW 19:34:59 38° SSE visible
01 Nov 2.7 19:57:46 10° W 20:00:08 27° SSW 20:00:08 27° SSW visible
02 Nov 1.9 17:47:45 10° W 17:50:37 44° SSW 17:53:27 10° ESE visible
02 Nov 4.2 19:24:44 10° WSW 19:25:14 12° SW 19:25:14 12° SW visible
03 Nov 3.0 18:13:57 10° W 18:16:24 23° SSW 18:18:47 10° SSE visible
04 Nov 4.0 18:41:10 10° SW 18:41:54 11° SSW 18:42:38 10° SSW visible
05 Nov 3.5 17:29:38 10° WSW 17:31:55 20° SSW 17:34:11 10° SSE visible
